Hourly Weather Ottawa

Today, 30 July, Friday

Time Temperature Precipitation Wind Pressure Humidity
00:00 +15°C° 0.3 mm 2 mps 746 mmHg 97%
01:00 +14°C° 0.3 mm 3 mps 746 mmHg 97%
02:00 +14°C° 0.1 mm 4 mps 747 mmHg 96%
03:00 +13°C° 0.1 mm 4 mps 747 mmHg 94%
04:00 +13°C° 0.1 mm 5 mps 747 mmHg 92%
05:00 +12°C° 0 mm 5 mps 748 mmHg 89%
06:00 +11°C° 0 mm 6 mps 748 mmHg 86%
07:00 +10°C° 0 mm 6 mps 749 mmHg 83%
08:00 +13°C° 0 mm 6 mps 749 mmHg 72%
09:00 +14°C° 0 mm 6 mps 750 mmHg 61%
10:00 +15°C° 0 mm 6 mps 750 mmHg 49%
11:00 +17°C° 0 mm 6 mps 750 mmHg 46%
12:00 +19°C° 0 mm 6 mps 750 mmHg 42%
13:00 +20°C° 0 mm 6 mps 750 mmHg 39%
14:00 +20°C° 0 mm 6 mps 750 mmHg 39%
15:00 +21°C° 0 mm 6 mps 750 mmHg 39%
16:00 +21°C° 0 mm 6 mps 750 mmHg 39%
17:00 +19°C° 0 mm 5 mps 750 mmHg 47%
18:00 +18°C° 0 mm 4 mps 750 mmHg 54%
19:00 +16°C° 0 mm 3 mps 751 mmHg 62%
20:00 +14°C° 0 mm 2 mps 751 mmHg 67%
21:00 +12°C° 0 mm 1 mps 751 mmHg 73%
22:00 +9°C° 0 mm 0 mps 752 mmHg 78%
23:00 +10°C° 0 mm 1 mps 752 mmHg 79%

Tomorrow, 31 July, Saturday

Time Temperature Precipitation Wind Pressure Humidity
00:00 +10°C° 0 mm 1 mps 751 mmHg 79%
01:00 +9°C° 0 mm 2 mps 751 mmHg 80%
02:00 +9°C° 0 mm 2 mps 751 mmHg 78%
03:00 +9°C° 0 mm 2 mps 751 mmHg 75%
04:00 +9°C° 0 mm 2 mps 751 mmHg 73%
05:00 +12°C° 0 mm 2 mps 752 mmHg 69%
06:00 +13°C° 0 mm 2 mps 752 mmHg 66%
07:00 +13°C° 0 mm 3 mps 752 mmHg 62%
08:00 +16°C° 0 mm 3 mps 752 mmHg 56%
09:00 +19°C° 0 mm 3 mps 752 mmHg 51%
10:00 +21°C° 0 mm 3 mps 752 mmHg 45%
11:00 +21°C° 0 mm 3 mps 751 mmHg 46%
12:00 +22°C° 0 mm 3 mps 751 mmHg 46%
13:00 +22°C° 0 mm 3 mps 751 mmHg 47%
14:00 +22°C° 0 mm 3 mps 751 mmHg 50%
15:00 +21°C° 0 mm 3 mps 751 mmHg 53%
16:00 +21°C° 0 mm 3 mps 750 mmHg 55%
17:00 +19°C° 0 mm 3 mps 750 mmHg 62%
18:00 +18°C° 0 mm 3 mps 751 mmHg 69%
19:00 +17°C° 0 mm 3 mps 751 mmHg 76%
20:00 +16°C° 0.1 mm 3 mps 751 mmHg 82%
21:00 +16°C° 0.1 mm 2 mps 751 mmHg 88%
22:00 +15°C° 0.1 mm 2 mps 751 mmHg 94%
23:00 +15°C° 0 mm 2 mps 750 mmHg 94%

Day after tomorrow, 1 August, Sunday

Time Temperature Precipitation Wind Pressure Humidity
00:00 +15°C° 0 mm 2 mps 750 mmHg 95%
01:00 +14°C° 0 mm 2 mps 750 mmHg 96%
02:00 +14°C° 0 mm 2 mps 750 mmHg 96%
03:00 +14°C° 0 mm 2 mps 749 mmHg 96%
04:00 +14°C° 0 mm 2 mps 749 mmHg 97%
05:00 +14°C° 0.4 mm 3 mps 749 mmHg 97%
06:00 +14°C° 0.4 mm 3 mps 749 mmHg 97%
07:00 +15°C° 0.4 mm 4 mps 748 mmHg 97%
08:00 +15°C° 1.3 mm 4 mps 748 mmHg 97%
09:00 +15°C° 1.3 mm 4 mps 748 mmHg 97%
10:00 +15°C° 1.3 mm 4 mps 748 mmHg 97%
11:00 +15°C° 1.9 mm 4 mps 747 mmHg 97%
12:00 +15°C° 1.9 mm 4 mps 747 mmHg 97%
13:00 +17°C° 1.9 mm 3 mps 747 mmHg 97%
14:00 +17°C° 0.7 mm 3 mps 747 mmHg 96%
15:00 +18°C° 0.7 mm 2 mps 747 mmHg 95%
16:00 +18°C° 0.7 mm 2 mps 747 mmHg 94%
17:00 +18°C° 4 mm 2 mps 746 mmHg 95%
18:00 +17°C° 4 mm 2 mps 746 mmHg 96%
19:00 +16°C° 4 mm 1 mps 746 mmHg 97%
20:00 +16°C° 2.2 mm 2 mps 746 mmHg 98%
21:00 +16°C° 2.2 mm 2 mps 747 mmHg 98%
22:00 +16°C° 2.2 mm 2 mps 747 mmHg 98%
23:00 +14°C° 1.1 mm 3 mps 747 mmHg 98%

2 August, Monday

Time Temperature Precipitation Wind Pressure Humidity
00:00 +14°C° 1.1 mm 3 mps 747 mmHg 98%
01:00 +14°C° 1.1 mm 4 mps 747 mmHg 98%
02:00 +14°C° 0.2 mm 4 mps 747 mmHg 97%
03:00 +13°C° 0.2 mm 4 mps 747 mmHg 96%
04:00 +13°C° 0.2 mm 4 mps 748 mmHg 95%
05:00 +13°C° 0 mm 4 mps 749 mmHg 94%
06:00 +13°C° 0 mm 4 mps 749 mmHg 94%
07:00 +13°C° 0 mm 4 mps 750 mmHg 93%
08:00 +15°C° 0 mm 4 mps 750 mmHg 80%
09:00 +17°C° 0 mm 5 mps 751 mmHg 66%
10:00 +21°C° 0 mm 5 mps 751 mmHg 52%
11:00 +21°C° 0 mm 5 mps 751 mmHg 49%
12:00 +22°C° 0 mm 4 mps 751 mmHg 45%
13:00 +23°C° 0 mm 4 mps 751 mmHg 41%
14:00 +23°C° 0 mm 4 mps 751 mmHg 43%
15:00 +23°C° 0 mm 4 mps 751 mmHg 45%
16:00 +24°C° 0 mm 3 mps 751 mmHg 47%
17:00 +21°C° 0 mm 3 mps 751 mmHg 53%
18:00 +20°C° 0 mm 2 mps 752 mmHg 59%
19:00 +18°C° 0 mm 2 mps 752 mmHg 65%
20:00 +18°C° 0 mm 1 mps 752 mmHg 67%
21:00 +16°C° 0 mm 1 mps 752 mmHg 68%
22:00 +15°C° 0 mm 1 mps 753 mmHg 69%
23:00 +15°C° 0 mm 1 mps 753 mmHg 71%

3 August, Tuesday

Time Temperature Precipitation Wind Pressure Humidity
00:00 +14°C° 0 mm 1 mps 753 mmHg 72%
01:00 +13°C° 0 mm 2 mps 753 mmHg 74%
02:00 +13°C° 0 mm 2 mps 753 mmHg 75%
03:00 +12°C° 0 mm 2 mps 753 mmHg 75%
04:00 +12°C° 0 mm 1 mps 753 mmHg 76%
05:00 +13°C° 0 mm 2 mps 753 mmHg 74%
06:00 +14°C° 0 mm 2 mps 753 mmHg 72%
07:00 +16°C° 0 mm 2 mps 753 mmHg 69%
08:00 +18°C° 0 mm 3 mps 753 mmHg 64%
09:00 +20°C° 0 mm 3 mps 753 mmHg 58%
10:00 +23°C° 0 mm 4 mps 753 mmHg 52%
11:00 +25°C° 0 mm 4 mps 753 mmHg 50%
12:00 +26°C° 0 mm 4 mps 753 mmHg 48%
13:00 +27°C° 0 mm 4 mps 752 mmHg 46%
14:00 +26°C° 0 mm 4 mps 752 mmHg 50%
15:00 +25°C° 0 mm 4 mps 752 mmHg 55%
16:00 +23°C° 0 mm 4 mps 752 mmHg 59%
17:00 +22°C° 0 mm 4 mps 752 mmHg 63%
18:00 +21°C° 0 mm 3 mps 753 mmHg 68%
19:00 +20°C° 0 mm 3 mps 753 mmHg 72%
20:00 +19°C° 0 mm 3 mps 753 mmHg 75%
21:00 +18°C° 0 mm 3 mps 753 mmHg 77%
22:00 +17°C° 0 mm 3 mps 753 mmHg 79%
23:00 +16°C° 0 mm 3 mps 753 mmHg 80%

4 August, Wednesday

Time Temperature Precipitation Wind Pressure Humidity
00:00 +16°C° 0 mm 2 mps 753 mmHg 81%
01:00 +15°C° 0 mm 2 mps 754 mmHg 82%
02:00 +15°C° 0 mm 2 mps 754 mmHg 84%
03:00 +15°C° 0 mm 2 mps 754 mmHg 86%
04:00 +14°C° 0 mm 2 mps 754 mmHg 88%
05:00 +16°C° 0 mm 2 mps 754 mmHg 85%
06:00 +17°C° 0 mm 2 mps 755 mmHg 82%
07:00 +18°C° 0 mm 2 mps 755 mmHg 79%
08:00 +20°C° 0 mm 2 mps 756 mmHg 73%
09:00 +23°C° 0 mm 2 mps 756 mmHg 66%
10:00 +25°C° 0 mm 2 mps 756 mmHg 60%
11:00 +26°C° 0 mm 2 mps 756 mmHg 58%
12:00 +27°C° 0 mm 2 mps 756 mmHg 55%
13:00 +28°C° 0 mm 2 mps 756 mmHg 53%
14:00 +26°C° 0.5 mm 2 mps 756 mmHg 62%
15:00 +25°C° 0.5 mm 2 mps 756 mmHg 70%
16:00 +24°C° 0.5 mm 2 mps 756 mmHg 79%
17:00 +23°C° 0.2 mm 2 mps 756 mmHg 80%
18:00 +23°C° 0.2 mm 1 mps 756 mmHg 82%
19:00 +22°C° 0.2 mm 1 mps 756 mmHg 83%
20:00 +21°C° 0 mm 1 mps 757 mmHg 84%
21:00 +20°C° 0 mm 1 mps 757 mmHg 85%
22:00 +19°C° 0 mm 1 mps 757 mmHg 86%
23:00 +19°C° 0 mm 1 mps 757 mmHg 86%
Show more